Вернуться в каталог

DELTA 1 R/B

АктивенPO
NORAD 6127·ROCKET BODY·🇺🇸 United States

Запущен Jul 23, 1972 с Vandenberg Space Force Base

Loading…

Ближайшие Пролёты (ближайшие 24 часа)

TLE

СвежийSource: Space-Track

Эпоха: Sep 14, 2026, 15:16 UTC

1 06127U 72058B   26257.63619226  .00001491  00000-0  16079-3 0  9996
2 06127  98.4535 128.6314 0083879   2.6540 357.5102 14.87632440713080

Отслеживайте DELTA 1 R/B в реальном времени с AllMySat

Download on the App Store